Alva, OK

8:32 PM CDT on July 25, 2017 (GMT -0500)
Alva Regional

Weather History for KAVK - July, 2013

Change the Weather History Date:

Thursday, July 4, 2013

  Actual Average Record
Temperature  
Mean Temperature 76 °F -  
Max Temperature 91 °F 94 °F 108 °F (1953)
Min Temperature 60 °F 68 °F 56 °F (1968)
Cooling Degree Days 10    
Growing Degree Days 26 (Base 50)    
Moisture  
Dew Point 51 °F    
Average Humidity 44    
Maximum Humidity 77    
Minimum Humidity 20    
Precipitation  
Precipitation 0.00 in - - ()
Sea Level Pressure  
Sea Level Pressure 29.97 in    
Wind  
Wind Speed 11 mph (SSE)    
Max Wind Speed 18 mph    
Max Gust Speed 26 mph    
Visibility 10 miles    
Events      
Averages and records for this station are not official NWS values.
T = Trace of Precipitation, MM = Missing Value Source: NWS Daily Summary

Daily Weather History Graph

Daily Weather History Graph

Search for Another Location

Airport or City:

Trip Planner

Search our weather history database for the weather conditions in past years. The results will help you decide how hot, cold, wet, or windy it might be!

Date:

Astronomy

Jul. 04, 2013 Rise Set
Actual Time 6:20 AM CDT 8:57 PM CDT
Civil Twilight 5:50 AM CDT 9:27 PM CDT
Nautical Twilight 5:12 AM CDT 10:05 PM CDT
Astronomical Twilight 4:30 AM CDT 10:47 PM CDT
Moon 3:36 AM CDT (7/4) 6:04 PM CDT (7/4)
Length of Visible Light 15h 37m
Length of Day
14h 36m
Waning Crescent, 11% of the Moon is Illuminated
Jul 4
Waning Crescent
Jul 8
New
Jul 15
First Quarter
Jul 22
Full
Jul 29
Last Quarter

Hourly Weather History & Observations

Time (CDT) Temp. Dew Point Humidity Pressure Visibility Wind Dir Wind Speed Gust Speed Precip Events Conditions
12:00 AM 68.0 °F 53.6 °F 60% 30.01 in 10.0 mi SSE 11.5 mph - N/A   Clear
12:20 AM 68.0 °F 53.6 °F 60% 30.01 in 10.0 mi SSE 11.5 mph - N/A   Clear
12:40 AM 68.0 °F 53.6 °F 60% 30.00 in 10.0 mi SSE 10.4 mph - N/A   Mostly Cloudy
1:00 AM 69.8 °F 53.6 °F 56% 30.00 in 10.0 mi SSE 11.5 mph - N/A   Mostly Cloudy
1:20 AM 68.0 °F 53.6 °F 60% 30.00 in 10.0 mi SSE 10.4 mph - N/A   Mostly Cloudy
1:40 AM 68.0 °F 53.6 °F 60% 30.00 in 10.0 mi SSE 8.1 mph - N/A   Overcast
2:00 AM 66.2 °F 53.6 °F 64% 30.00 in 10.0 mi South 10.4 mph - N/A   Mostly Cloudy
2:20 AM 66.2 °F 53.6 °F 64% 29.99 in 10.0 mi South 9.2 mph - N/A   Partly Cloudy
2:40 AM 64.4 °F 53.6 °F 68% 29.99 in 10.0 mi South 6.9 mph - N/A   Clear
3:00 AM 64.4 °F 53.6 °F 68% 30.00 in 10.0 mi East 4.6 mph - N/A   Clear
3:20 AM 62.6 °F 53.6 °F 72% 30.00 in 10.0 mi ENE 9.2 mph - N/A   Clear
3:40 AM 64.4 °F 53.6 °F 68% 30.00 in 10.0 mi East 8.1 mph - N/A   Clear
4:00 AM 62.6 °F 53.6 °F 72% 30.00 in 10.0 mi East 8.1 mph - N/A   Clear
4:20 AM 62.6 °F 53.6 °F 72% 30.00 in 10.0 mi ESE 8.1 mph - N/A   Clear
4:40 AM 62.6 °F 53.6 °F 72% 30.00 in 10.0 mi ESE 9.2 mph - N/A   Clear
5:00 AM 62.6 °F 53.6 °F 72% 30.00 in 10.0 mi ESE 9.2 mph - N/A   Clear
5:20 AM 62.6 °F 53.6 °F 72% 30.00 in 10.0 mi SE 11.5 mph - N/A   Clear
5:40 AM 62.6 °F 53.6 °F 72% 30.01 in 10.0 mi SSE 10.4 mph - N/A   Clear
6:00 AM 62.6 °F 53.6 °F 72% 30.00 in 10.0 mi SSE 9.2 mph - N/A   Clear
6:20 AM 62.6 °F 53.6 °F 72% 30.01 in 10.0 mi SSE 8.1 mph - N/A   Clear
6:40 AM 60.8 °F 53.6 °F 77% 30.02 in 10.0 mi SSE 9.2 mph - N/A   Clear
7:00 AM 62.6 °F 53.6 °F 72% 30.02 in 10.0 mi SSE 9.2 mph - N/A   Clear
7:20 AM 64.4 °F 53.6 °F 68% 30.02 in 10.0 mi SSE 8.1 mph - N/A   Clear
7:40 AM 64.4 °F 53.6 °F 68% 30.03 in 10.0 mi SSE 10.4 mph - N/A   Clear
8:00 AM 68.0 °F 53.6 °F 60% 30.03 in 10.0 mi SSE 12.7 mph - N/A   Clear
8:20 AM 71.6 °F 53.6 °F 53% 30.03 in 10.0 mi SSE 12.7 mph 17.3 mph N/A   Scattered Clouds
8:40 AM 73.4 °F 53.6 °F 50% 30.03 in 10.0 mi South 16.1 mph - N/A   Scattered Clouds
9:00 AM 75.2 °F 53.6 °F 47% 30.03 in 10.0 mi South 17.3 mph - N/A   Clear
9:25 AM 75.2 °F 51.8 °F 44% 30.02 in 10.0 mi South 18.4 mph 23.0 mph N/A   Clear
9:40 AM 77.0 °F 53.6 °F 44% 30.02 in 10.0 mi SSW 17.3 mph - N/A   Clear
10:00 AM 77.0 °F 53.6 °F 44% 30.01 in 10.0 mi SSW 16.1 mph - N/A   Partly Cloudy
10:20 AM 80.6 °F 51.8 °F 37% 30.01 in 10.0 mi South 15.0 mph 21.9 mph N/A   Partly Cloudy
10:40 AM 82.4 °F 51.8 °F 35% 30.01 in 10.0 mi South 12.7 mph - N/A   Clear
11:00 AM 84.2 °F 50.0 °F 30% 30.01 in 10.0 mi SSW 11.5 mph 18.4 mph N/A   Clear
11:20 AM 82.4 °F 51.8 °F 35% 30.01 in 10.0 mi South 10.4 mph - N/A   Clear
11:40 AM 84.2 °F 51.8 °F 33% 30.00 in 10.0 mi SSW 9.2 mph - N/A   Clear
12:00 PM 84.2 °F 50.0 °F 30% 30.00 in 10.0 mi SSW 10.4 mph 17.3 mph N/A   Clear
12:20 PM 86.0 °F 51.8 °F 31% 29.99 in 10.0 mi SW 9.2 mph - N/A   Clear
12:40 PM 86.0 °F 50.0 °F 29% 29.99 in 10.0 mi South 12.7 mph 18.4 mph N/A   Clear
1:00 PM 87.8 °F 50.0 °F 27% 29.98 in 10.0 mi SSW 11.5 mph 19.6 mph N/A   Clear
1:20 PM 87.8 °F 48.2 °F 25% 29.97 in 10.0 mi South 12.7 mph 17.3 mph N/A   Clear
1:40 PM 89.6 °F 46.4 °F 22% 29.96 in 10.0 mi SSW 11.5 mph 18.4 mph N/A   Clear
2:00 PM 89.6 °F 46.4 °F 22% 29.96 in 10.0 mi SSW 13.8 mph 21.9 mph N/A   Clear
2:20 PM 91.4 °F 46.4 °F 21% 29.95 in 10.0 mi South 15.0 mph 20.7 mph N/A   Clear
2:40 PM 89.6 °F 46.4 °F 22% 29.95 in 10.0 mi SSW 18.4 mph 21.9 mph N/A   Partly Cloudy
3:00 PM 91.4 °F 44.6 °F 20% 29.94 in 10.0 mi South 9.2 mph 23.0 mph N/A   Partly Cloudy
3:20 PM 89.6 °F 44.6 °F 21% 29.94 in 10.0 mi SSW 13.8 mph 17.3 mph N/A   Scattered Clouds
3:40 PM 91.4 °F 44.6 °F 20% 29.93 in 10.0 mi SSW 11.5 mph 23.0 mph N/A   Partly Cloudy
4:00 PM 91.4 °F 44.6 °F 20% 29.92 in 10.0 mi South 16.1 mph 23.0 mph N/A   Clear
4:20 PM 91.4 °F 44.6 °F 20% 29.92 in 10.0 mi SSW 16.1 mph 26.5 mph N/A   Clear
4:40 PM 91.4 °F 44.6 °F 20% 29.92 in 10.0 mi South 16.1 mph - N/A   Clear
5:00 PM 91.4 °F 44.6 °F 20% 29.92 in 10.0 mi SSW 11.5 mph 23.0 mph N/A   Clear
5:20 PM 91.4 °F 44.6 °F 20% 29.91 in 10.0 mi South 11.5 mph 21.9 mph N/A   Clear
5:40 PM 91.4 °F 44.6 °F 20% 29.91 in 10.0 mi SSW 12.7 mph 17.3 mph N/A   Clear
6:00 PM 91.4 °F 46.4 °F 21% 29.90 in 10.0 mi South 15.0 mph 19.6 mph N/A   Clear
6:20 PM 89.6 °F 46.4 °F 22% 29.90 in 10.0 mi SSW 11.5 mph 17.3 mph N/A   Clear
6:40 PM 89.6 °F 46.4 °F 22% 29.89 in 10.0 mi South 11.5 mph - N/A   Clear
7:00 PM 89.6 °F 44.6 °F 21% 29.89 in 10.0 mi South 13.8 mph 20.7 mph N/A   Clear
7:20 PM 89.6 °F 46.4 °F 22% 29.89 in 10.0 mi SSE 10.4 mph - N/A   Clear
7:40 PM 87.8 °F 46.4 °F 24% 29.90 in 10.0 mi South 11.5 mph - N/A   Clear
8:00 PM 86.0 °F 46.4 °F 25% 29.90 in 10.0 mi SSE 10.4 mph - N/A   Clear
8:20 PM 84.2 °F 46.4 °F 27% 29.90 in 10.0 mi SSE 9.2 mph - N/A   Clear
8:40 PM 82.4 °F 48.2 °F 30% 29.90 in 10.0 mi SSE 9.2 mph - N/A   Clear
9:00 PM 80.6 °F 48.2 °F 32% 29.90 in 10.0 mi SE 9.2 mph - N/A   Clear
9:20 PM 77.0 °F 48.2 °F 36% 29.90 in 10.0 mi SE 10.4 mph - N/A   Clear
9:40 PM 77.0 °F 50.0 °F 39% 29.91 in 10.0 mi SE 11.5 mph - N/A   Clear
10:00 PM 77.0 °F 53.6 °F 44% 29.92 in 10.0 mi SE 12.7 mph - N/A   Clear
10:20 PM 77.0 °F 55.4 °F 47% 29.92 in 10.0 mi SE 12.7 mph - N/A   Partly Cloudy
10:40 PM 77.0 °F 55.4 °F 47% 29.93 in 10.0 mi SSE 12.7 mph - N/A   Partly Cloudy
11:00 PM 77.0 °F 55.4 °F 47% 29.93 in 10.0 mi SSE 12.7 mph - N/A   Partly Cloudy
11:20 PM 77.0 °F 55.4 °F 47% 29.94 in 10.0 mi SSE 10.4 mph - N/A   Partly Cloudy
11:40 PM 75.2 °F 55.4 °F 50% 29.95 in 10.0 mi SSE 11.5 mph - N/A   Mostly Cloudy